This demonstration page uses our WeatherBlox Daily Observations layout. Learn more.

Left ArrowRight Arrow

Hourly Observations for February 14, 2016

Temp ( °F °C ) Dew Point ( °F °C ) Humidity (%) Winds ( mph kmh ) Pressure ( in mb ) Visibility ( mi km ) Precip ( " mm )
12:51 am 00:51 Clear 47 8.3 20 -6.7 34 34 SE 3 6 29.95 1014 10 16.0934 N/A
1:51 am 01:51 Clear 45 7.2 19 -7.2 35 35 E 6 9 29.96 1015 10 16.0934 N/A
2:51 am 02:51 Clear 44 6.7 19 -7.2 37 37 SSE 5 7 29.94 1014 10 16.0934 N/A
3:51 am 03:51 Clear 42 5.6 20 -6.7 41 41 undefined N/A 29.94 1014 10 16.0934 N/A
4:51 am 04:51 Clear 40 4.4 20 -6.7 45 45 N N/A 29.96 1015 10 16.0934 N/A
5:51 am 05:51 Clear 39 3.9 20 -6.7 46 46 ESE 3 6 29.98 1015 10 16.0934 N/A
6:51 am 06:51 Clear 37 2.8 20 -6.7 50 50 N N/A 30.01 1016 10 16.0934 N/A
7:51 am 07:51 Sunny 41 5 20 -6.7 43 43 ESE 5 7 30 1016 10 16.0934 N/A
8:51 am 08:51 Sunny 50 10 20 -6.7 30 30 N N/A 30.02 1017 10 16.0934 N/A
9:51 am 09:51 Sunny 56 13.3 23 -5 28 28 N N/A 30 1016 10 16.0934 N/A
10:51 am 10:51 Sunny 62 16.7 22 -5.6 21 21 W 3 6 30.01 1016 10 16.0934 N/A
11:51 am 11:51 Sunny 66 18.9 21 -6.1 18 18 W 7 11 29.98 1015 10 16.0934 N/A
12:51 pm 12:51 Sunny 71 21.7 19 -7.2 14 14 WNW 10 17 29.93 1014 10 16.0934 N/A
1:51 pm 13:51 Sunny 74 23.3 19 -7.2 12 12 WNW 12 19 29.88 1012 10 16.0934 N/A
2:51 pm 14:51 Sunny 77 25 17 -8.3 10 10 WNW 13 20 29.85 1011 10 16.0934 N/A
3:51 pm 15:51 Sunny 79 26.1 12 -11.1 8 8 WNW 20 31 29.85 1011 10 16.0934 N/A
4:51 pm 16:51 Sunny 76 24.4 6 -14.4 6 6 WNW 16 26 29.84 1011 10 16.0934 N/A
5:51 pm 17:51 Sunny 73 22.8 13 -10.6 10 10 WNW 13 20 29.86 1011 10 16.0934 N/A
6:51 pm 18:51 Clear 64 17.8 14 -10 14 14 NNW 9 15 29.9 1012 10 16.0934 N/A
7:51 pm 19:51 Clear 64 17.8 16 -8.9 15 15 NW 14 22 29.91 1013 10 16.0934 N/A
8:51 pm 20:51 Clear 63 17.2 17 -8.3 17 17 NW 13 20 29.9 1013 10 16.0934 N/A
9:51 pm 21:51 Clear 59 15 19 -7.2 21 21 NW 10 17 29.91 1013 10 16.0934 N/A
10:51 pm 22:51 Clear 53 11.7 22 -5.6 30 30 NW 12 19 29.91 1013 10 16.0934 N/A
11:51 pm 23:51 Clear 54 12.2 25 -3.9 33 33 NW 13 20 29.91 1013 10 16.0934 N/A

Powered by AerisWeather